EST,Max TemperatureF,Mean TemperatureF,Min TemperatureF,Max Dew PointF,MeanDew PointF,Min DewpointF,Max Humidity, Mean Humidity, Min Humidity, Max Sea Level PressureIn, Mean Sea Level PressureIn, Min Sea Level PressureIn, Max VisibilityMiles, Mean VisibilityMiles, Min VisibilityMiles, Max Wind SpeedMPH, Mean Wind SpeedMPH, Max Gust SpeedMPH,PrecipitationIn, CloudCover, Events, WindDirDegrees
2012-12-1,55,42,32,45,36,28,100,89,69,30.27,30.17,30.00,10,4,0,18,7,28,0.00,8,Fog,128
2012-12-2,55,48,42,54,49,42,100,90,77,30.11,29.98,29.91,10,6,2,13,8,24,0.23,8,Fog-Rain,245
2012-12-3,61,51,42,57,49,42,100,97,81,30.14,30.05,29.90,10,3,0,16,5,32,0.00,7,Fog,149
2012-12-4,61,51,39,54,46,29,100,81,58,30.12,29.95,29.89,10,8,2,16,12,26,0.36,6,Rain,248
2012-12-5,37,30,24,28,20,17,81,66,52,30.40,30.34,30.14,10,10,10,16,10,24,0.00,3,,345
2012-12-6,37,32,26,30,25,19,86,76,62,30.35,30.17,29.98,10,10,10,14,6,20,0.00,6,,155
2012-12-7,42,39,36,41,37,31,100,92,79,29.97,29.93,29.88,10,4,1,8,3,,0.02,8,Rain,127
2012-12-8,39,36,32,39,34,27,100,92,78,30.18,29.95,29.82,10,6,2,12,6,18,0.10,8,Rain-Snow,17
2012-12-9,33,32,30,33,29,26,100,90,79,30.19,29.93,29.64,10,6,0,16,7,23,0.02,8,Fog-Rain-Snow,84
2012-12-10,37,32,28,36,30,19,100,87,67,29.87,29.68,29.59,10,8,0,14,8,22,0.01,8,Fog-Rain-Snow,289
2012-12-11,33,27,21,23,20,17,82,69,56,30.14,29.99,29.84,10,10,10,14,8,22,0.00,5,,250
2012-12-12,42,34,25,25,23,20,85,69,43,30.37,30.30,30.16,10,10,8,12,7,17,0.00,2,,209
2012-12-13,43,35,27,25,24,22,82,66,43,30.37,30.29,30.17,10,10,7,14,6,21,0.00,2,,190
2012-12-14,48,38,28,30,27,24,92,72,44,30.25,30.21,30.14,10,10,5,7,4,,0.00,4,Fog,159
2012-12-15,42,36,30,40,34,28,100,91,66,30.19,30.00,29.69,10,4,0,15,6,26,0.02,7,Fog-Rain,114
2012-12-16,51,46,42,48,44,39,100,92,77,29.68,29.63,29.58,10,7,2,12,8,40,0.04,8,Rain,214
2012-12-17,41,39,37,38,35,30,97,87,75,29.73,29.67,29.62,10,9,7,9,6,,0.00,8,,291
2012-12-18,39,34,30,32,29,24,93,78,57,29.77,29.72,29.63,10,9,4,17,7,,0.00,6,Snow,285
2012-12-19,37,32,28,34,32,27,100,90,70,30.14,29.96,29.74,10,5,2,9,2,,0.00,7,,294
2012-12-20,45,39,33,43,36,30,97,89,79,30.07,29.48,29.15,10,7,2,23,12,33,0.73,8,Rain-Snow,141
2012-12-21,33,30,26,31,27,21,100,87,69,29.85,29.36,29.17,10,4,1,28,12,41,0.04,8,Snow,291
2012-12-22,30,28,27,22,20,18,81,71,66,30.06,29.98,29.82,10,10,9,24,17,43,0.00,6,,286
2012-12-23,32,26,19,23,20,17,93,76,64,30.05,29.96,29.86,10,10,8,14,6,,0.00,4,,292
2012-12-24,30,24,18,27,22,15,93,86,69,30.03,29.92,29.83,10,6,0,13,6,,0.05,7,Fog-Snow,38
2012-12-25,30,27,24,25,22,19,93,80,61,30.33,30.20,29.96,10,10,4,13,9,,0.00,7,Snow,357
2012-12-26,28,26,24,25,23,21,93,86,74,30.28,29.94,29.83,10,3,0,21,13,30,0.04,8,Fog-Snow,28
2012-12-27,28,20,12,27,23,11,93,87,69,30.16,29.98,29.84,10,6,1,15,10,21,0.01,6,Snow,335
2012-12-28,27,18,9,23,16,5,100,88,74,30.19,30.09,29.97,10,6,0,5,1,,0.00,6,Fog-Snow,113
2012-12-29,28,24,21,23,21,16,96,85,74,30.05,29.87,29.79,10,6,2,13,7,,0.03,7,Snow,350
2012-12-30,28,23,18,23,19,14,92,82,71,30.29,30.21,30.07,10,9,5,13,8,20,0.00,7,Snow,247
2012-12-31,33,26,18,26,21,14,85,76,69,30.16,30.00,29.91,10,9,6,20,9,25,0.00,6,,248